When you browse on this site, cookies collect data to enhance your experience and personalize the content and advertising you see.
Visit our Privacy Policy to learn more. By continuing to use the site, you agree to this use of cookies and data.
  • In Portugal
  • List of Countries
  • For 7 days
  • Water Temperature
  • Weather Map
  • Weather Widgets
  • user-avatar
    Login

    Hourly Weather Berat

    Today, 17 November, Sunday

    Time Temperature Precipitation Wind Pressure Humidity
    00:00 +14°C° 0 mm 2 mps 746 mmHg 78%
    01:00 +13°C° 0 mm 3 mps 745 mmHg 77%
    02:00 +13°C° 0 mm 3 mps 745 mmHg 77%
    03:00 +13°C° 0 mm 3 mps 745 mmHg 77%
    04:00 +13°C° 0 mm 3 mps 745 mmHg 77%
    05:00 +13°C° 0 mm 3 mps 745 mmHg 77%
    06:00 +13°C° 0 mm 3 mps 745 mmHg 77%
    07:00 +13°C° 0 mm 4 mps 745 mmHg 74%
    08:00 +16°C° 0 mm 3 mps 745 mmHg 70%
    09:00 +17°C° 0 mm 3 mps 745 mmHg 67%
    10:00 +18°C° 0 mm 3 mps 745 mmHg 63%
    11:00 +19°C° 0 mm 3 mps 744 mmHg 59%
    12:00 +20°C° 0 mm 3 mps 744 mmHg 56%
    13:00 +21°C° 0 mm 4 mps 743 mmHg 51%
    14:00 +20°C° 0 mm 3 mps 743 mmHg 56%
    15:00 +19°C° 0 mm 3 mps 743 mmHg 60%
    16:00 +18°C° 0 mm 3 mps 743 mmHg 65%
    17:00 +17°C° 0 mm 3 mps 743 mmHg 67%
    18:00 +17°C° 0 mm 3 mps 743 mmHg 68%
    19:00 +16°C° 0 mm 3 mps 743 mmHg 70%
    20:00 +16°C° 0 mm 3 mps 743 mmHg 71%
    21:00 +16°C° 0 mm 3 mps 743 mmHg 72%
    22:00 +16°C° 0 mm 3 mps 743 mmHg 72%
    23:00 +16°C° 0.2 mm 3 mps 743 mmHg 74%

    Tomorrow, 18 November, Monday

    Time Temperature Precipitation Wind Pressure Humidity
    00:00 +14°C° 0.2 mm 3 mps 742 mmHg 75%
    01:00 +14°C° 0.2 mm 3 mps 742 mmHg 77%
    02:00 +15°C° 4.9 mm 2 mps 742 mmHg 83%
    03:00 +14°C° 4.9 mm 2 mps 743 mmHg 88%
    04:00 +14°C° 4.9 mm 1 mps 743 mmHg 94%
    05:00 +14°C° 0.2 mm 1 mps 743 mmHg 92%
    06:00 +14°C° 0.2 mm 1 mps 744 mmHg 90%
    07:00 +13°C° 0.2 mm 2 mps 744 mmHg 87%
    08:00 +15°C° 0 mm 2 mps 744 mmHg 81%
    09:00 +16°C° 0 mm 2 mps 745 mmHg 75%
    10:00 +17°C° 0 mm 2 mps 745 mmHg 68%
    11:00 +19°C° 0.1 mm 1 mps 745 mmHg 67%
    12:00 +19°C° 0.1 mm 1 mps 745 mmHg 65%
    13:00 +19°C° 0.1 mm 1 mps 746 mmHg 64%
    14:00 +18°C° 0 mm 1 mps 746 mmHg 68%
    15:00 +18°C° 0 mm 1 mps 746 mmHg 72%
    16:00 +16°C° 0 mm 1 mps 746 mmHg 76%
    17:00 +15°C° 0 mm 1 mps 746 mmHg 78%
    18:00 +15°C° 0 mm 1 mps 746 mmHg 79%
    19:00 +14°C° 0 mm 1 mps 746 mmHg 80%
    20:00 +14°C° 0 mm 1 mps 747 mmHg 79%
    21:00 +14°C° 0 mm 1 mps 747 mmHg 78%
    22:00 +13°C° 0 mm 2 mps 747 mmHg 77%
    23:00 +13°C° 0 mm 2 mps 747 mmHg 77%

    Day after tomorrow, 19 November, Tuesday

    Time Temperature Precipitation Wind Pressure Humidity
    00:00 +13°C° 0 mm 2 mps 747 mmHg 76%
    01:00 +13°C° 0 mm 2 mps 747 mmHg 76%
    02:00 +13°C° 0 mm 2 mps 747 mmHg 75%
    03:00 +13°C° 0 mm 2 mps 747 mmHg 75%
    04:00 +13°C° 0 mm 2 mps 747 mmHg 74%
    05:00 +13°C° 0 mm 2 mps 747 mmHg 75%
    06:00 +13°C° 0 mm 2 mps 747 mmHg 76%
    07:00 +13°C° 0 mm 2 mps 747 mmHg 76%
    08:00 +14°C° 0 mm 2 mps 747 mmHg 72%
    09:00 +16°C° 0 mm 2 mps 747 mmHg 67%
    10:00 +19°C° 0 mm 1 mps 747 mmHg 63%
    11:00 +18°C° 0 mm 2 mps 747 mmHg 61%
    12:00 +19°C° 0 mm 2 mps 746 mmHg 59%
    13:00 +20°C° 0 mm 2 mps 746 mmHg 57%
    14:00 +20°C° 0.3 mm 1 mps 746 mmHg 64%
    15:00 +19°C° 0.3 mm 1 mps 746 mmHg 70%
    16:00 +16°C° 0.3 mm 1 mps 745 mmHg 77%
    17:00 +16°C° 0.5 mm 1 mps 745 mmHg 79%
    18:00 +16°C° 0.5 mm 1 mps 745 mmHg 81%
    19:00 +16°C° 0.5 mm 1 mps 745 mmHg 83%
    20:00 +15°C° 1.7 mm 1 mps 745 mmHg 86%
    21:00 +15°C° 1.7 mm 1 mps 745 mmHg 89%
    22:00 +15°C° 1.7 mm 1 mps 744 mmHg 92%
    23:00 +15°C° 5.6 mm 1 mps 744 mmHg 92%

    20 November, Wednesday

    Time Temperature Precipitation Wind Pressure Humidity
    00:00 +15°C° 5.6 mm 2 mps 744 mmHg 92%
    01:00 +14°C° 5.6 mm 2 mps 744 mmHg 93%
    02:00 +14°C° 1.1 mm 2 mps 743 mmHg 91%
    03:00 +14°C° 1.1 mm 2 mps 743 mmHg 90%
    04:00 +14°C° 1.1 mm 2 mps 743 mmHg 88%
    05:00 +14°C° 0.5 mm 2 mps 743 mmHg 88%
    06:00 +13°C° 0.5 mm 2 mps 743 mmHg 88%
    07:00 +13°C° 0.5 mm 2 mps 744 mmHg 88%
    08:00 +14°C° 0.4 mm 2 mps 744 mmHg 82%
    09:00 +16°C° 0.4 mm 2 mps 744 mmHg 76%
    10:00 +17°C° 0.4 mm 2 mps 744 mmHg 70%
    11:00 +17°C° 0.3 mm 2 mps 744 mmHg 67%
    12:00 +17°C° 0.3 mm 2 mps 744 mmHg 64%
    13:00 +18°C° 0.3 mm 2 mps 744 mmHg 61%
    14:00 +17°C° 0.2 mm 2 mps 744 mmHg 67%
    15:00 +16°C° 0.2 mm 2 mps 744 mmHg 72%
    16:00 +15°C° 0.2 mm 1 mps 744 mmHg 77%
    17:00 +14°C° 0.1 mm 1 mps 744 mmHg 79%
    18:00 +14°C° 0.1 mm 1 mps 745 mmHg 81%
    19:00 +13°C° 0.1 mm 1 mps 745 mmHg 84%
    20:00 +13°C° 0 mm 1 mps 745 mmHg 84%
    21:00 +12°C° 0 mm 1 mps 745 mmHg 84%
    22:00 +12°C° 0 mm 1 mps 745 mmHg 84%
    23:00 +12°C° 0 mm 1 mps 745 mmHg 84%

    21 November, Thursday

    Time Temperature Precipitation Wind Pressure Humidity
    00:00 +12°C° 0 mm 1 mps 745 mmHg 84%
    01:00 +12°C° 0 mm 1 mps 745 mmHg 84%
    02:00 +11°C° 0 mm 1 mps 745 mmHg 84%
    03:00 +11°C° 0 mm 1 mps 745 mmHg 83%
    04:00 +10°C° 0 mm 2 mps 745 mmHg 83%
    05:00 +10°C° 0 mm 2 mps 745 mmHg 83%
    06:00 +10°C° 0 mm 2 mps 745 mmHg 82%
    07:00 +10°C° 0 mm 2 mps 745 mmHg 82%
    08:00 +12°C° 0 mm 1 mps 745 mmHg 76%
    09:00 +14°C° 0 mm 1 mps 745 mmHg 71%
    10:00 +15°C° 0 mm 1 mps 745 mmHg 65%
    11:00 +16°C° 0 mm 1 mps 745 mmHg 63%
    12:00 +16°C° 0 mm 1 mps 745 mmHg 61%
    13:00 +18°C° 0 mm 1 mps 744 mmHg 59%
    14:00 +16°C° 0 mm 1 mps 744 mmHg 65%
    15:00 +15°C° 0 mm 1 mps 744 mmHg 71%
    16:00 +14°C° 0 mm 1 mps 744 mmHg 77%
    17:00 +14°C° 0 mm 1 mps 744 mmHg 78%
    18:00 +13°C° 0 mm 1 mps 744 mmHg 79%
    19:00 +12°C° 0 mm 0 mps 744 mmHg 81%
    20:00 +13°C° 0 mm 1 mps 744 mmHg 80%
    21:00 +12°C° 0 mm 1 mps 745 mmHg 79%
    22:00 +12°C° 0 mm 1 mps 745 mmHg 78%
    23:00 +12°C° 0 mm 1 mps 745 mmHg 77%

    22 November, Friday

    Time Temperature Precipitation Wind Pressure Humidity
    00:00 +11°C° 0 mm 1 mps 745 mmHg 76%
    01:00 +11°C° 0 mm 1 mps 745 mmHg 76%
    02:00 +11°C° 0 mm 1 mps 745 mmHg 74%
    03:00 +11°C° 0 mm 1 mps 745 mmHg 73%
    04:00 +11°C° 0 mm 1 mps 745 mmHg 72%
    05:00 +10°C° 0 mm 1 mps 745 mmHg 71%
    06:00 +10°C° 0 mm 1 mps 745 mmHg 71%
    07:00 +10°C° 0 mm 1 mps 745 mmHg 70%
    08:00 +12°C° 0 mm 1 mps 745 mmHg 64%
    09:00 +14°C° 0 mm 1 mps 746 mmHg 58%
    10:00 +16°C° 0 mm 1 mps 746 mmHg 52%
    11:00 +16°C° 0 mm 1 mps 746 mmHg 50%
    12:00 +18°C° 0 mm 1 mps 746 mmHg 49%
    13:00 +18°C° 0 mm 1 mps 745 mmHg 47%
    14:00 +16°C° 0 mm 1 mps 745 mmHg 54%
    15:00 +15°C° 0 mm 1 mps 745 mmHg 61%
    16:00 +14°C° 0 mm 1 mps 745 mmHg 68%
    17:00 +14°C° 0 mm 1 mps 745 mmHg 69%
    18:00 +13°C° 0 mm 1 mps 746 mmHg 70%
    19:00 +12°C° 0 mm 1 mps 746 mmHg 71%
    20:00 +12°C° 0 mm 1 mps 746 mmHg 71%
    21:00 +12°C° 0 mm 1 mps 746 mmHg 71%
    22:00 +12°C° 0 mm 1 mps 746 mmHg 70%
    23:00 +12°C° 0 mm 1 mps 746 mmHg 70%
    Show more